Flag for Germany Weather past 2 weeks in Göppingen, Baden-Württemberg, Germany

48 °F

Light rain. Low clouds.

Feels Like: 45 °F
Forecast: 44 / 64 °F
Wind: 6 mph from Southwest

Location: Stoetten

Current Time: Oct 4, 2015 at 1:23:44 PM

Latest Report: Oct 4, 2015 at 12:00 PM

Visibility: 3 mi

Pressure: 30.12 "Hg

Humidity: 99%

Dew point: 48 °F

Location of GöppingenLocation

Historic Weather in Göppingen — Graph


Göppingen temperature yesterday

Maximum temperature yesterday: 64 °F (at 5:00 PM)
Minimum temperature yesterday: 50 °F (at 5:00 AM)
Average temperature yesterday: 56 °F

Past Weeks' High & Low Weather Summary

High64 °F (Oct 3, 5:00 PM)100% (Sep 19, 11:00 PM)30.52 "Hg (Sep 19, 11:00 PM)
Low36 °F (Oct 1, 8:00 AM)43% (Oct 2, 4:00 PM)29.66 "Hg (Sep 22, 5:00 PM)
Average50 °F75%30.18 "Hg
* Reported Sep 19 12:00 Noon — Oct 4 12:00 Noon, Göppingen, Weather by CustomWeather, © 2015

Note: Actual official high and low records may vary slightly from our data, if they occured in-between our weather recording intervals... More about our weather records


Göppingen weather history for previous 24 hours

Time TempWeatherWind HumidityBarometerVisibility
12:00 PM
Sun, Oct 4
48 °FLight rain. Low clouds.6 mph99%30.12 "Hg3 mi
11:00 AM48 °FLight rain. Dense fog.8 mph100%30.10 "Hg0 mi
10:00 AM49 °FRain. Dense fog.7 mph100%30.10 "Hg0 mi
9:00 AM48 °FLight rain. Dense fog.6 mph100%30.08 "Hg0 mi
8:00 AM48 °FLight rain. Dense fog.7 mph100%30.06 "Hg0 mi
7:00 AM49 °FLight rain. Overcast.5 mph95%30.04 "Hg5 mi
5:00 AM54 °FLight rain. Overcast.1 mph79%29.98 "Hg11 mi
4:00 AM55 °FOvercast.2 mph73%29.97 "Hg11 mi
3:00 AM57 °FOvercast.2 mph66%29.97 "Hg16 mi
2:00 AM54 °FPassing clouds.2 mph71%29.98 "Hg14 mi
1:00 AM56 °FOvercast.2 mph69%29.98 "Hg14 mi
11:00 PM
Sat, Oct 3
56 °FClear.2 mph69%29.97 "Hg14 mi
10:00 PM57 °FClear.3 mph65%29.97 "Hg14 mi
9:00 PM57 °FPassing clouds.3 mph67%29.98 "Hg37 mi
8:00 PM58 °FPassing clouds.2 mph64%29.98 "Hg37 mi
7:00 PM59 °FPassing clouds.2 mph60%29.96 "Hg34 mi
6:00 PM63 °FPassing clouds.2 mph51%29.95 "Hg37 mi
5:00 PM64 °FPassing clouds.3 mph52%29.95 "Hg34 mi
4:00 PM63 °FScattered clouds.3 mph55%29.96 "Hg34 mi
3:00 PM62 °FScattered clouds.2 mph57%29.97 "Hg34 mi
2:00 PM62 °FPassing clouds.2 mph58%29.98 "Hg34 mi
1:00 PM60 °FPassing clouds.3 mph61%30.01 "Hg31 mi
Weather by CustomWeather, © 2015

See weather overviewHow to use our weather pages